DMSP 5D-2 F11 DEB, 29077

Orbit data source: Space-Track

DMSP 5D-2 F11 DEB, 29077 is space debris in SSO originally from a launch on Thu, 28 Nov 1991 UTC launched from the Air Force Western Test Range (AFWTR). Debris objects in space refer to the collection of defunct objects orbiting the Earth. Examples of debris include non-operational satellites, rocket bodies, and fragments generated from explosions, collisions, or faulty payload assembly.

Loading next visibility...
Identifier
29077, 1991-082BY
Orbit
SSO
Country
Flag of USUS
Related business
Manufacturer
Unknown
Mission
Spacecraft
Bus & Motor
Unknown
Mass
Unknown
Launch date (UTC)
1991-11-28 (34 years ago)
Launch vehicle
Unknown
Launch site
Air Force Western Test Range (AFWTR)
Object type
Payload
Rocket body
Debris
Shape & HBR
Unknown shape, 0.1 m
Radar Cross Section
Small (<0.1 m²)

Expand to show TLE details & history
Last TLE update: 1 day ago

TLE from 1 day ago
0 DMSP 5D-2 F11 DEB
1 29077U 91082BY  26120.34748343  .00012829  00000-0  29268-2 0  9993
2 29077  98.6949 268.3989 0048236 315.1217  44.6083 14.55204469119332
Epoch: 2026-04-30T08:20Z
TLE epoch observation values (Epoch: 2026-04-30T08:20:22.568Z)
Latitude
-0.00001°
Longitude
-74.99052°
Altitude
687.404 km
Speed
7.526 km/s
True Right ascension
17h 53m 35s
True Declination
0° 00' 00"
Sunlit
Object was in full shadow at epoch
Visualization orbit readout
Latitude
Unknown
Longitude
Unknown
Altitude
Unknown
Speed
Unknown
Apparent Right ascension
Unknown
Apparent Declination
Unknown
Sunlit
N/A
Visualization observer readout
Local Sidereal Time
21:54:15
Azimuth
Unknown
Elevation
Unknown
Doppler factor
Unknown
Orbital elements
Apogee altitude
739.982 km
Perigee altitude
671.642 km
Semi-major axis
7,083.949 km
Eccentricity
0.00482
Inclination
98.6949°
RAAN
268.3989°
Arg. of periapsis
315.1217°
True anomaly
44.99814°
Mean anomaly
44.6083°
Eccentric anomaly
44.80305°
Mean motion
3.64024 °/min
Orbital period
98.89 mins
BSTAR
0.0029268
Loading maneuver chart data...
Computing Atmospheric mass density...
Loading historical data...
Loading historical data...
Loading historical data...
Loading historical data...
Loading historical data...
Loading historical data...
Loading historical data...

Documentation

Showing up to 5 results
|